LANDSAT 5 1 14780U 84021A 08186.79321124 .00000038 00000-0 18484-4 0 5083 2 14780 98.1485 253.0294 0007825 97.1557 263.0530 14.57141412294798 SPOT 2 1 20436U 90005A 08186.92061880 .00000170 00000-0 10000-3 0 3880 2 20436 98.6486 258.1582 0001549 121.5423 355.2311 14.20064101956409 ERS-2 1 23560U 95021A 08186.91920729 -.00000003 00000-0 15174-4 0 1320 2 23560 98.5496 260.7860 0001174 90.2814 269.8505 14.32247629690500 RADARSAT-1 1 23710U 95059A 08186.89634385 .00000082 00000-0 48629-4 0 2659 2 23710 98.5757 192.6476 0001144 90.5027 25.6962 14.29984645661177 TOMS EP 1 23940U 96037A 08186.70219386 -.00000017 00000-0 66817-5 0 8162 2 23940 98.0789 66.9509 0029722 352.2767 7.7968 14.52187101638992 MIDORI (ADEOS) 1 24277U 96046A 08186.97763481 -.00000023 00000-0 71397-5 0 8060 2 24277 98.3133 160.7700 0000567 145.7578 214.3639 14.28585956619352 ORBVIEW 2 (SEASTAR) 1 24883U 97037A 08186.66945717 .00000005 00000-0 10919-4 0 3756 2 24883 98.3068 303.1784 0001176 167.3372 192.7847 14.59946779581734 IRS-1D 1 24971U 97057A 08186.90216100 -.00000027 00000-0 53202-5 0 3466 2 24971 98.2858 232.9406 0053486 249.1677 110.3768 14.32938362563093 TRMM 1 25063U 97074A 08186.88062390 .00001868 00000-0 26585-4 0 8152 2 25063 34.9660 115.6694 0001235 271.4140 88.6450 15.56127735605967 SPOT 4 1 25260U 98017A 08186.90450631 .00000141 00000-0 86941-4 0 1643 2 25260 98.6981 259.4974 0001452 106.9887 5.5792 14.20037341533047 FASAT B 1 25395U 98043B 08186.95368646 .00000012 00000-0 23078-4 0 2123 2 25395 98.3782 228.9755 0003169 127.7319 232.4147 14.24299569519010 TECHSAT 1B (GO-32) 1 25397U 98043D 08186.82792490 -.00000029 00000-0 55408-5 0 6394 2 25397 98.3623 221.1186 0001431 147.7363 212.3892 14.23145465518725 LANDSAT 7 1 25682U 99020A 08186.89784717 .00000002 00000-0 10366-4 0 5951 2 25682 98.1937 253.7108 0001346 111.7388 248.3943 14.57123848490505 KITSAT 3 1 25756U 99029A 08186.70409906 .00000001 00000-0 12154-4 0 6683 2 25756 98.6599 2.2443 0014612 147.1833 213.0273 14.52503187482715 DLR-TUBSAT 1 25757U 99029B 08186.90021204 -.00000036 00000-0 29937-5 0 8338 2 25757 98.6624 353.6692 0014771 169.3414 190.8105 14.50824549482353 IRS-P4 (OCEANSAT 1) 1 25758U 99029C 08186.68678425 .00000099 00000-0 36091-4 0 9031 2 25758 98.2832 281.1991 0000593 129.8077 230.3181 14.50855078482479 QUIKSCAT 1 25789U 99034A 08186.54263767 -.00000008 00000-0 14754-4 0 1861 2 25789 98.6363 14.2191 0000660 109.0850 251.0403 14.26773545470887 IKONOS 2 1 25919U 99051A 08186.90487332 -.00000572 00000-0 -99286-4 0 7070 2 25919 98.1085 261.4102 0001834 95.6394 264.5016 14.64443653469235 CBERS 1 (ZY 1A) 1 25940U 99057A 08186.90529830 -.00000020 00000-0 71357-5 0 8472 2 25940 98.1646 205.4729 0006132 53.4710 306.7039 14.34424524457026 TERRA 1 25994U 99068A 08186.91750047 .00000013 00000-0 12941-4 0 7350 2 25994 98.2107 260.8302 0001524 77.4446 282.6921 14.57113937454580 ARIRANG 1 (KOMPSAT-1) 1 26032U 99070A 08186.91770232 .00000097 00000-0 26413-4 0 8953 2 26032 97.9684 73.0445 0003738 253.8414 106.2380 14.65530239456620 EO-1 1 26619U 00075A 08186.85935552 -.00000839 00000-0 -15883-3 0 1083 2 26619 98.1490 253.1968 0008171 319.9443 40.1141 14.61763344405527 SAC C 1 26620U 00075B 08186.72426275 .00000402 00000-0 10000-3 0 4676 2 26620 97.9548 230.2215 0001157 76.0052 284.1319 14.56549180405098 EROS A1 1 26631U 00079A 08187.16623760 .00001526 00000-0 68463-4 0 8454 2 26631 97.3617 252.8252 0009395 105.2816 336.5905 15.22675231421752 QUICKBIRD 2 1 26953U 01047A 08186.88135257 .00001005 00000-0 27304-4 0 9063 2 26953 97.1797 264.8447 0002417 84.9635 21.9321 15.39883931377163 TES 1 26957U 01049A 08186.85908938 -.00000229 00000-0 -13770-4 0 1119 2 26957 97.5713 268.2310 0018108 314.1007 45.8714 14.99703610367138 JASON-1 1 26997U 01055A 08186.57922387 -.00000038 00000-0 10000-3 0 9143 2 26997 66.0425 72.6530 0007939 266.7100 93.3019 12.80930211307519 METEOR-3M 1 27001U 01056A 08186.87557770 -.00000036 00000-0 74123-5 0 2266 2 27001 99.3085 49.5590 0013071 218.4277 141.5938 13.68700730328000 BADR B 1 27003U 01056C 08186.71644475 .00000116 00000-0 17993-3 0 1414 2 27003 99.3013 55.1467 0019413 225.6112 134.3443 13.70094940328376 MAROC-TUBSAT 1 27004U 01056D 08186.82407363 .00000116 00000-0 18044-3 0 1294 2 27004 99.2987 54.7141 0019067 225.9381 134.0196 13.70024995328360 ENVISAT 1 27386U 02009A 08186.75866140 -.00000294 00000-0 -92821-4 0 5895 2 27386 98.5474 253.1332 0001007 92.6045 267.5289 14.32245492331763 SPOT 5 1 27421U 02021A 08186.93074756 .00000011 00000-0 25798-4 0 869 2 27421 98.6847 258.3188 0001278 64.7035 295.4268 14.20048674319889 AQUA 1 27424U 02022A 08186.73115608 .00000405 00000-0 10000-3 0 8597 2 27424 98.2308 127.0968 0001494 74.6253 285.5145 14.57105405328161 HAIYANG-1A 1 27430U 02024A 08186.93770817 .00000002 00000-0 17626-4 0 8288 2 27430 98.5253 255.2729 0009505 27.1486 333.0191 14.29657033320453 ALSAT 1 1 27559U 02054A 08186.89159110 .00000001 00000-0 91594-5 0 3859 2 27559 97.9937 67.1609 0011993 88.6059 271.6519 14.62969670298912 MIDORI II (ADEOS-II) 1 27597U 02056A 08186.78083683 .00000018 00000-0 25227-4 0 6021 2 27597 98.5202 255.5899 0000651 149.5572 210.5634 14.26132229289277 ICESAT 1 27642U 03002A 08186.94515591 .00000008 00000-0 21679-5 0 9277 2 27642 94.0096 116.4614 0002283 62.9992 297.1467 14.90863345297935 ORBVIEW 3 1 27838U 03030A 08186.91599505 .00001072 00000-0 29270-4 0 4449 2 27838 97.1057 250.7550 0001142 105.3465 3.4309 15.39542752281952 IRS-P6 (RESOURCESAT-1) 1 28051U 03046A 08186.91800502 .00000012 00000-0 25562-4 0 6294 2 28051 98.7511 260.4631 0003175 74.6955 285.4569 14.21611855244770 CBERS 2 (ZY 1B) 1 28057U 03049A 08186.87333838 .00000043 00000-0 29705-4 0 4274 2 28057 98.3345 245.9129 0002158 142.2187 217.9145 14.35334720246585 TANSUO 1 1 28220U 04012A 08186.79819649 .00000287 00000-0 36376-4 0 9241 2 28220 97.5424 235.8557 0010502 268.8244 91.1728 14.88529288228739 FORMOSAT-2 (ROCSAT 2) 1 28254U 04018A 08186.93442274 .00000106 00000-0 10000-3 0 7317 2 28254 98.9238 250.0087 0003448 134.3329 337.3848 14.00804298210902 AURA 1 28376U 04026A 08186.87399012 -.00000007 00000-0 85674-5 0 2503 2 28376 98.2303 129.4022 0001622 77.6273 282.5114 14.57086247211232 PARASOL 1 28498U 04049G 08186.80124590 .00000102 00000-0 32658-4 0 1601 2 28498 98.2334 126.8769 0001180 90.7062 269.2367 14.57090132188492 IRS-P5 (CARTOSAT-1) 1 28649U 05017A 08186.91800944 .00000024 00000-0 95322-5 0 6157 2 28649 97.9064 258.7325 0002086 92.1813 267.9638 14.82640323171405 TOPSAT 1 28891U 05043B 08186.91545734 .00000027 00000-0 15236-4 0 396 2 28891 98.0912 80.0725 0017317 358.9552 1.1602 14.59724486143207 SINAH 1 1 28893U 05043D 08186.89747093 -.00000021 00000-0 52212-5 0 51 2 28893 98.0936 80.6792 0015819 358.7240 1.3917 14.60044891143233 ALOS (DAICHI) 1 28931U 06002A 08186.91346914 .00000065 00000-0 23412-4 0 7705 2 28931 98.1851 259.8718 0002141 99.5282 260.6156 14.59556876130242 EROS B 1 29079U 06014A 08186.88060494 .00000711 00000-0 34860-4 0 5079 2 29079 97.4097 306.4682 0007750 159.8378 356.5362 15.21284638121705 RSS-1 (YAOGAN 1) 1 29092U 06015A 08186.92013846 .00000035 00000-0 11219-4 0 4777 2 29092 97.8170 183.5651 0001155 105.9898 254.1447 14.80298746118395 RESURS-DK 1 1 29228U 06021A 08186.91598591 .00000759 00000-0 18521-4 0 3370 2 29228 69.9325 220.3676 0159607 5.1630 52.3496 15.34769115115073 ARIRANG 2 (KOMPSAT-2) 1 29268U 06031A 08186.90273728 .00000015 00000-0 12289-4 0 1745 2 29268 98.0766 82.3133 0018155 152.6787 207.5373 14.61649211103355 LAPAN-TUBSAT 1 29709U 07001A 08186.95023267 .00000003 00000-0 71896-5 0 6459 2 29709 97.8653 244.6766 0013071 339.1808 20.8863 14.80219109 80118 CARTOSAT-2 (IRS-P7) 1 29710U 07001B 08186.90075169 .00000015 00000-0 90888-5 0 6549 2 29710 97.9317 247.4950 0002503 76.7996 283.3492 14.78633062 80067 HAIYANG-1B 1 31113U 07010A 08186.85920524 -.00000015 00000-0 11650-4 0 3825 2 31113 98.5828 260.6038 0021879 344.3763 15.6735 14.28051406 64337 COSMO-SKYMED 1 1 31598U 07023A 08186.92450251 .00000038 00000-0 11268-4 0 2243 2 31598 97.8676 15.6134 0001523 75.0689 285.0698 14.82170057 58182 TERRASAR-X 1 31698U 07026A 08186.88275685 .00000040 00000-0 51054-5 0 1844 2 31698 97.4443 193.2577 0001574 91.3661 26.5950 15.19148638 58542 WORLDVIEW-1 (WV-1) 1 32060U 07041A 08186.90938010 .00000318 00000-0 15980-4 0 9074 2 32060 97.4659 260.5007 0001068 52.0505 59.8441 15.24232094 44185 CBERS 2B 1 32062U 07042A 08186.87399582 -.00000016 00000-0 95050-5 0 8935 2 32062 98.5203 261.8016 0001469 105.8582 254.2760 14.35439248 41571 COSMO-SKYMED 2 1 32376U 07059A 08186.89076416 -.00000010 00000-0 52528-5 0 6396 2 32376 97.8671 15.5808 0001331 72.1379 287.9981 14.82164374 30923 CARTOSAT-2A 1 32783U 08021A 08186.93463851 -.00000195 00000-0 -19353-4 0 2238 2 32783 97.9983 246.5845 0017886 99.1444 261.1795 14.78585574 10012 IMS-1 1 32786U 08021D 08186.94225932 -.00000026 00000-0 36474-5 0 1086 2 32786 97.9939 246.6998 0014081 75.3359 284.9413 14.80016045 10027